Regional Weather Roundup
Issued by NWS

Home | Current Version | Previous Version | Text Only | Print | Product List | Glossary On
Versions: 1 2 3 4 5 6 7 8 9 10 11 12 13 14 15 16 17 18 19 20 21 22 23 24 25 26 27 28 29 30 31 32 33 34 35 36 37 38 39 40 41 42 43 44 45 46 47 48 49 50
000
ASUS43 KIND 250109
RWRIN

WEATHER ROUNDUP FOR INDIANA
NATIONAL WEATHER SERVICE INDIANAPOLIS IN
900 PM EDT SUN MAY 24 2015

NOTE: "FAIR" INDICATES FEW OR NO CLOUDS BELOW 12,000 FEET WITH NO
SIGNIFICANT WEATHER AND/OR OBSTRUCTIONS TO VISIBILITY.

* - STATION DOES NOT REPORT WEATHER SUCH AS PRECIPITATION OR FOG.

+ - STATION NOT QUALITY CONTROLLED BY THE NATIONAL WEATHER SERVICE.
    USE DATA WITH CAUTION...ESPECIALLY DEWPOINT AND RELATIVE
    HUMIDITY OBSERVATIONS.

INZ001>003-010>013-019-020-250200-
NORTHWEST INDIANA

CITY           SKY/WX    TMP DP  RH WIND       PRES   REMARKS
GARY /AIRPORT/ MOCLDY    68  63  83 S10       29.95F
KNOX *+        CLEAR     79  54  41 S12G18    29.98S
LA PORTE +     PTCLDY    80  58  46 S7        29.99R
MICHIGAN CITY+ MOCLDY    79  54  41 S12       29.97S
MONTICELLO +   CLEAR     78  60  54 S12       30.00S
RENSSELAER +   PTCLDY    79  59  50 S15       29.98S
VALPARAISO     CLOUDY    79  58  48 S12       29.98R

$$

LMZ046-743>745-250200-
SOUTHERN LAKE MICHIGAN

STATION/POSITION TIME  TEMP    WIND        PRES    WAVE
                       AIR SEA DIR/SP/G            HT
                 (UTC) (F)     (DEG/KT/KT) (MB)    (FT)
BURNS HARBOR     0100   79     180/ 12/ 17 1014.6S
MICHIGAN CITY    0100   80     150/ 12/ 17   N/A
5NW MICH CITY    0100   64 55  110/  4/  6   N/A     1

$$

INZ004-005-014>016-021>024-250200-
NORTH CENTRAL INDIANA

CITY           SKY/WX    TMP DP  RH WIND       PRES   REMARKS
GOSHEN         MOCLDY    76  55  48 S10       30.01F
LOGANSPORT +   CLEAR     77  50  38 S13       30.03R
PERU/GRISSOM   PTCLDY    77  56  49 S10       30.02R
ROCHESTER +    PTCLDY    79  54  41 S9        30.02S
SOUTH BEND     MOCLDY    79  53  40 S12       29.99S
WARSAW +       PTCLDY    77  54  44 S6        30.02F

$$

INZ006>009-017-018-025>027-250200-
NORTHEAST INDIANA

CITY           SKY/WX    TMP DP  RH WIND       PRES   REMARKS
ANGOLA *+      MOCLDY    75  55  50 S8        30.05R
AUBURN +       PTCLDY    77  50  38 CALM      30.07R
FORT WAYNE     MOCLDY    76  54  46 S12       30.06S
HUNTINGTON +   PTCLDY    76  53  43 S5        30.05S

$$

INZ028-029-035-036-043>045-051>053-250200-
WEST CENTRAL INDIANA

CITY           SKY/WX    TMP DP  RH WIND       PRES   REMARKS
CRAWFORDSVL +  CLEAR     75  53  45 S10G18    30.03S
GREENCASTLE +  PTCLDY    73  55  53 S9        30.05R
LAFAYETTE      CLEAR     77  59  53 S10       29.99F
TERRE HAUTE    PTCLDY    78  61  55 S15       30.01S

$$

INZ030>032-037>040-046>048-054>057-064-065-250200-
CENTRAL INDIANA

CITY           SKY/WX    TMP DP  RH WIND       PRES   REMARKS
CP ATTERBURY + CLEAR     75  57  53 S7        30.07S
COLUMBUS       PTCLDY    77  50  38 S10G16    30.07S
FISHERS *+     CLEAR     75  59  57 S9        30.05
FRANKFORT +    CLEAR     77  58  52 SE3       30.05S
GREENWOOD *+   CLEAR     79  52  38 S12       30.06F
INDIANAPOLIS   MOCLDY    78  56  46 S12       30.03S
-EAGLE CREEK   CLEAR     78  57  48 S9G17     30.04S
KOKOMO *+      CLEAR     77  55  47 S13       30.03S
MARION +       CLEAR     77  50  38 S14       30.05F
MT COMFORT *+  CLEAR     79  39  24 S10G16    30.06F
SHELBYVILLE    PTCLDY    80  55  42 S12       30.06S
ZIONSVILLE +   CLEAR     79  54  41 S9        30.06S

$$

INZ033-034-041-042-049-050-058-059-250200-
EAST CENTRAL INDIANA

CITY           SKY/WX    TMP DP  RH WIND       PRES   REMARKS
MUNCIE         PTCLDY    79  53  40 S8        30.06F

$$

INZ060-061-067>069-081>083-085>088-250200-
SOUTHWEST INDIANA

CITY           SKY/WX    TMP DP  RH WIND       PRES   REMARKS
EVANSVILLE     CLOUDY    80  63  55 S13       30.03R
HUNTINGBURG *+ MOCLDY    79  61  53 SE12      30.05S
WASHINGTON +   MOCLDY    77  58  51 SE10      30.03R

$$

INZ062-063-066-070>080-084-089>092-250200-
SOUTH CENTRAL AND SOUTHEAST INDIANA

CITY           SKY/WX    TMP DP  RH WIND       PRES   REMARKS
BLOOMINGTON    PTCLDY    76  61  59 S7        30.05F
MADISON *+     CLEAR     77  52  41 SE7       30.12S
NORTH VERNON + CLEAR     77  54  44 SE7       30.09F
SEYMOUR +      CLEAR     79  57  47 S8        30.06F

$$




USA.gov is the U.S. government's official web portal to all federal, state and local government web resources and services.